Погода в Грицово

Россия / Тульская область     54°06′46″N   38°09′59″E
темп.,
°C
ветер,
м/с
пор.,
м/с
влажн.,
%
обл.,
%
осадки,
мм/ч
давл.,
гПа
погр.,
м
20 июня, вс
вс2000:00+17ююв22880 0.0 102412
03:00+16ю22890 0.0 102511
06:00+18ююв12860 0.0 102468
09:00+22юв22740 0.0 1024495
12:00+25ююв34560 0.0 1023984
15:00+26ююв33526 0.0 10221169
18:00+25ююв2367100 0.0 1021275
21:00+20юв228081 0.0 102120
21 июня, пн
пн2100:00+18юв2288100 0.0 102220
03:00+18вюв2289100 0.0 102115
06:00+18вюв3587100 0.0 1022132
09:00+23вюв357136 0.0 1022453
12:00+26юв4559100 0.0 1021861
15:00+27юв455473 0.0 10201176
18:00+26юв35688 0.0 1020440
21:00+21юв348850 0.0 102166
22 июня, вт
вт2200:00+19ююв33909 0.0 102135
03:00+18юв22915 0.0 102120
06:00+19юв25894 0.0 1022135
09:00+24юв35700 0.0 1022425
12:00+28юв44560 0.0 1022946
15:00+29юв34500 0.0 10211264
18:00+28юв35650 0.0 1021278
21:00+22юв338033 0.0 102130
23 июня, ср
ср2300:00+20юв238173 0.0 102222
03:00+19вюв22818 0.0 102218
06:00+20в23803 0.0 102268
09:00+25вюв34653 0.0 1022395
12:00+28вюв33540 0.0 1022949
15:00+29в33480 0.0 10221216
18:00+28в34624 0.0 1021230
21:00+23вюв22752 0.0 102211
24 июня, чт
чт2400:00+20юв11804 0.0 102211
03:00+19в228347 0.0 102211
06:00+21в11799 0.0 102240
09:00+26вюв22645 0.0 1022388
12:00+29юв22555 0.0 1021950
15:00+31ю11485 0.0 10211682
18:00+30юв015621 0.0 10201694
21:00+24вюв22713 0.0 101916